Location: Unspecified
(42.3650°N, 71.1030°W)
Time: 16:46:14
(UTC+00:00)

Transit 2A - Pass Details

Date: 01 July 2024
Orbit: 591 x 960 km, 66.7° (Epoch: 16 July)

Event Time Altitude Azimuth Distance (km) Brightness Sun altitude
Rises 03:47:10 0° 319° (NW) 3,596 10.5 -23.1°
Reaches altitude 10° 03:50:00 10° 309° (NW) 2,675 9.5 -23.2°
Maximum altitude 03:55:15 28° 252° (WSW) 1,701 7.7 -23.4°
Enters shadow 03:56:54 25° 227° (SW) 1,820 7.6 -23.5°
